Terminal Aerodrome Forecast
Issued by NWS

Home | Current Version | Previous Version | Text Only | Print | Product List | Glossary On
Versions: 1 2 3 4 5 6 7 8 9 10 11 12 13 14
000
FTUS45 KRIW 181100
TAFRKS
TAF
KRKS 181136Z 1812/1912 30007KT P6SM SCT018 BKN040
      TEMPO 1812/1815 BKN018
     FM181700 36010KT P6SM VCSH SCT040 BKN090
     FM190100 02012G18KT P6SM VCSH SCT025 BKN040
     FM190700 05013KT P6SM SCT012 BKN025=

USA.gov is the U.S. government's official web portal to all federal, state and local government web resources and services.